Time,TemperatureF,DewpointF,PressureIn,WindDirection,WindDirectionDegrees,WindSpeedMPH,WindSpeedGustMPH,Humidity,HourlyPrecipIn,Conditions,Clouds,dailyrainin,SoftwareType,DateUTC
2013-05-14 00:03:00,60.6,46.0,27.29,NNW,337,2.3,2.8,58,0.00,,,0.00,Rainwise IP-100,2013-05-14 07:03:00,
2013-05-14 00:08:00,60.3,46.0,27.29,NNW,337,2.6,2.8,59,0.00,,,0.00,Rainwise IP-100,2013-05-14 07:08:00,
2013-05-14 00:13:00,60.0,46.0,27.29,NNW,337,2.3,2.8,59,0.00,,,0.00,Rainwise IP-100,2013-05-14 07:13:00,
2013-05-14 00:18:00,59.9,46.0,27.29,NNW,337,2.3,2.6,59,0.00,,,0.00,Rainwise IP-100,2013-05-14 07:18:00,
2013-05-14 00:24:00,59.9,46.0,27.29,NNW,337,2.8,3.0,60,0.00,,,0.00,Rainwise IP-100,2013-05-14 07:24:00,
2013-05-14 00:29:00,59.9,46.0,27.29,NNW,337,2.6,3.0,60,0.00,,,0.00,Rainwise IP-100,2013-05-14 07:29:00,
2013-05-14 00:34:00,59.6,46.0,27.29,North,360,3.3,3.7,60,0.00,,,0.00,Rainwise IP-100,2013-05-14 07:34:00,
2013-05-14 00:39:00,59.5,46.0,27.29,North,360,2.6,3.7,60,0.00,,,0.00,Rainwise IP-100,2013-05-14 07:39:00,
2013-05-14 00:44:00,59.4,46.0,27.28,North,360,1.9,3.5,60,0.00,,,0.00,Rainwise IP-100,2013-05-14 07:44:00,
2013-05-14 00:49:00,59.2,46.0,27.28,North,360,2.3,3.3,61,0.00,,,0.00,Rainwise IP-100,2013-05-14 07:49:00,
2013-05-14 00:54:00,59.0,46.0,27.28,North,360,2.8,3.0,61,0.00,,,0.00,Rainwise IP-100,2013-05-14 07:54:00,
2013-05-14 00:59:00,59.0,45.0,27.28,North,360,2.1,3.3,60,0.00,,,0.00,Rainwise IP-100,2013-05-14 07:59:00,
2013-05-14 01:04:00,58.7,46.0,27.28,North,360,2.3,3.5,61,0.00,,,0.00,Rainwise IP-100,2013-05-14 08:04:00,
2013-05-14 01:09:00,57.9,46.0,27.28,North,360,2.3,2.8,63,0.00,,,0.00,Rainwise IP-100,2013-05-14 08:09:00,
2013-05-14 01:14:00,57.3,46.0,27.28,North,360,2.3,3.0,64,0.00,,,0.00,Rainwise IP-100,2013-05-14 08:14:00,
2013-05-14 01:19:00,57.2,45.0,27.28,North,360,3.7,3.7,64,0.00,,,0.00,Rainwise IP-100,2013-05-14 08:19:00,
2013-05-14 01:25:00,57.3,45.0,27.28,North,360,1.9,3.7,63,0.00,,,0.00,Rainwise IP-100,2013-05-14 08:25:00,
2013-05-14 01:30:00,57.3,45.0,27.28,North,360,2.1,2.6,63,0.00,,,0.00,Rainwise IP-100,2013-05-14 08:30:00,
2013-05-14 01:35:00,57.2,45.0,27.28,North,360,2.8,3.3,63,0.00,,,0.00,Rainwise IP-100,2013-05-14 08:35:00,
2013-05-14 01:40:00,57.2,45.0,27.27,North,360,0.0,3.0,63,0.00,,,0.00,Rainwise IP-100,2013-05-14 08:40:00,
2013-05-14 01:45:00,57.1,45.0,27.27,North,360,0.0,1.6,64,0.00,,,0.00,Rainwise IP-100,2013-05-14 08:45:00,
2013-05-14 01:50:00,56.7,45.0,27.28,North,360,0.0,2.1,65,0.00,,,0.00,Rainwise IP-100,2013-05-14 08:50:00,
2013-05-14 01:55:00,56.4,44.0,27.27,North,360,0.0,1.9,64,0.00,,,0.00,Rainwise IP-100,2013-05-14 08:55:00,
2013-05-14 02:00:00,56.3,44.0,27.27,North,360,1.2,1.6,64,0.00,,,0.00,Rainwise IP-100,2013-05-14 09:00:00,
2013-05-14 02:05:00,56.2,44.0,27.27,North,360,1.9,2.1,64,0.00,,,0.00,Rainwise IP-100,2013-05-14 09:05:00,
2013-05-14 02:10:00,56.3,44.0,27.27,North,360,2.3,3.5,63,0.00,,,0.00,Rainwise IP-100,2013-05-14 09:10:00,
2013-05-14 02:15:00,56.4,44.0,27.27,North,360,1.6,3.3,63,0.00,,,0.00,Rainwise IP-100,2013-05-14 09:15:00,
2013-05-14 02:20:00,56.4,44.0,27.26,North,360,1.4,2.3,62,0.00,,,0.00,Rainwise IP-100,2013-05-14 09:20:00,
2013-05-14 02:26:00,56.2,43.0,27.26,North,360,2.6,2.6,62,0.00,,,0.00,Rainwise IP-100,2013-05-14 09:26:00,
2013-05-14 02:31:00,56.1,43.0,27.26,North,360,1.9,3.0,62,0.00,,,0.00,Rainwise IP-100,2013-05-14 09:31:00,
2013-05-14 02:36:00,56.3,43.0,27.26,North,360,1.4,2.8,61,0.00,,,0.00,Rainwise IP-100,2013-05-14 09:36:00,
2013-05-14 02:41:00,56.4,43.0,27.26,North,360,2.8,3.0,61,0.00,,,0.00,Rainwise IP-100,2013-05-14 09:41:00,
2013-05-14 02:46:00,56.5,43.0,27.26,NNW,337,3.0,3.5,61,0.00,,,0.00,Rainwise IP-100,2013-05-14 09:46:00,
2013-05-14 02:51:00,57.0,43.0,27.26,NNW,337,2.6,3.0,59,0.00,,,0.00,Rainwise IP-100,2013-05-14 09:51:00,
2013-05-14 02:56:00,57.6,42.0,27.26,NNW,337,2.6,3.0,57,0.00,,,0.00,Rainwise IP-100,2013-05-14 09:56:00,
2013-05-14 03:01:00,57.6,42.0,27.26,NNW,337,2.6,3.3,56,0.00,,,0.00,Rainwise IP-100,2013-05-14 10:01:00,
2013-05-14 03:06:00,57.2,42.0,27.26,NNW,337,3.7,4.0,58,0.00,,,0.00,Rainwise IP-100,2013-05-14 10:06:00,
2013-05-14 03:11:00,57.0,42.0,27.25,NNW,337,2.8,4.0,58,0.00,,,0.00,Rainwise IP-100,2013-05-14 10:11:00,
2013-05-14 03:16:00,56.9,42.0,27.26,NNW,337,2.1,3.3,58,0.00,,,0.00,Rainwise IP-100,2013-05-14 10:16:00,
2013-05-14 03:21:00,56.6,42.0,27.25,NNW,337,2.8,3.0,59,0.00,,,0.00,Rainwise IP-100,2013-05-14 10:21:00,
2013-05-14 03:27:00,56.4,42.0,27.25,NNW,337,3.5,3.5,59,0.00,,,0.00,Rainwise IP-100,2013-05-14 10:27:00,
2013-05-14 03:32:00,56.4,42.0,27.25,NNW,337,3.0,4.0,59,0.00,,,0.00,Rainwise IP-100,2013-05-14 10:32:00,
2013-05-14 03:37:00,56.5,41.0,27.25,NNW,337,3.5,3.7,57,0.00,,,0.00,Rainwise IP-100,2013-05-14 10:37:00,
2013-05-14 03:42:00,56.4,41.0,27.26,NNW,337,3.0,3.7,56,0.00,,,0.00,Rainwise IP-100,2013-05-14 10:42:00,
2013-05-14 03:47:00,56.2,40.0,27.25,NNW,337,1.6,3.3,56,0.00,,,0.00,Rainwise IP-100,2013-05-14 10:47:00,
2013-05-14 03:52:00,55.7,41.0,27.25,NNW,337,2.6,2.6,58,0.00,,,0.00,Rainwise IP-100,2013-05-14 10:52:00,
2013-05-14 03:57:00,55.3,41.0,27.25,NNW,337,2.6,3.5,59,0.00,,,0.00,Rainwise IP-100,2013-05-14 10:57:00,
2013-05-14 04:03:00,55.4,41.0,27.25,NNW,337,1.9,3.0,60,0.00,,,0.00,Rainwise IP-100,2013-05-14 11:03:00,
2013-05-14 04:08:00,55.2,42.0,27.25,North,360,2.6,3.5,61,0.00,,,0.00,Rainwise IP-100,2013-05-14 11:08:00,
2013-05-14 04:13:00,55.1,42.0,27.25,North,360,2.6,3.3,61,0.00,,,0.00,Rainwise IP-100,2013-05-14 11:13:00,
2013-05-14 04:18:00,55.0,41.0,27.25,North,360,3.0,3.5,60,0.00,,,0.00,Rainwise IP-100,2013-05-14 11:18:00,
2013-05-14 04:23:00,54.9,41.0,27.25,North,360,3.0,3.3,60,0.00,,,0.00,Rainwise IP-100,2013-05-14 11:23:00,
2013-05-14 04:29:00,55.2,41.0,27.25,North,360,2.8,3.3,59,0.00,,,0.00,Rainwise IP-100,2013-05-14 11:29:00,
2013-05-14 04:34:00,55.0,41.0,27.25,North,360,3.0,3.3,59,0.00,,,0.00,Rainwise IP-100,2013-05-14 11:34:00,
2013-05-14 04:39:00,54.6,41.0,27.25,North,360,2.8,3.3,60,0.00,,,0.00,Rainwise IP-100,2013-05-14 11:39:00,
2013-05-14 04:44:00,54.4,41.0,27.25,North,360,3.3,3.7,60,0.00,,,0.00,Rainwise IP-100,2013-05-14 11:44:00,
2013-05-14 04:49:00,54.6,40.0,27.24,North,360,2.8,3.5,59,0.00,,,0.00,Rainwise IP-100,2013-05-14 11:49:00,
2013-05-14 04:54:00,55.0,40.0,27.24,North,360,3.3,3.5,57,0.00,,,0.00,Rainwise IP-100,2013-05-14 11:54:00,
2013-05-14 04:59:00,55.2,40.0,27.24,North,360,2.8,3.7,56,0.00,,,0.00,Rainwise IP-100,2013-05-14 11:59:00,
2013-05-14 05:04:00,55.3,39.0,27.24,North,360,3.0,4.0,55,0.00,,,0.00,Rainwise IP-100,2013-05-14 12:04:00,
2013-05-14 05:09:00,55.4,39.0,27.24,North,360,3.0,3.7,54,0.00,,,0.00,Rainwise IP-100,2013-05-14 12:09:00,
2013-05-14 05:14:00,55.5,39.0,27.24,North,360,2.3,3.5,53,0.00,,,0.00,Rainwise IP-100,2013-05-14 12:14:00,
2013-05-14 05:19:00,55.7,39.0,27.24,North,360,2.8,2.8,53,0.00,,,0.00,Rainwise IP-100,2013-05-14 12:19:00,
2013-05-14 05:24:00,55.7,39.0,27.24,North,360,3.3,3.7,53,0.00,,,0.00,Rainwise IP-100,2013-05-14 12:24:00,
2013-05-14 05:30:00,55.6,39.0,27.24,North,360,2.8,3.7,53,0.00,,,0.00,Rainwise IP-100,2013-05-14 12:30:00,
2013-05-14 05:35:00,55.8,38.0,27.24,North,360,3.3,3.5,52,0.00,,,0.00,Rainwise IP-100,2013-05-14 12:35:00,
2013-05-14 05:40:00,56.0,38.0,27.23,NNW,337,2.8,3.7,51,0.00,,,0.00,Rainwise IP-100,2013-05-14 12:40:00,
2013-05-14 05:45:00,56.4,38.0,27.24,NNW,337,3.0,3.7,49,0.00,,,0.00,Rainwise IP-100,2013-05-14 12:45:00,
2013-05-14 05:50:00,56.7,38.0,27.24,NNW,337,2.1,3.0,49,0.00,,,0.00,Rainwise IP-100,2013-05-14 12:50:00,
2013-05-14 05:55:00,56.5,38.0,27.24,NNW,337,1.6,2.8,49,0.00,,,0.00,Rainwise IP-100,2013-05-14 12:55:00,
2013-05-14 06:00:00,56.3,38.0,27.24,NNW,337,1.9,2.6,49,0.00,,,0.00,Rainwise IP-100,2013-05-14 13:00:00,
2013-05-14 06:05:00,56.2,37.0,27.24,NNW,337,1.9,2.6,49,0.00,,,0.00,Rainwise IP-100,2013-05-14 13:05:00,
2013-05-14 06:10:00,56.2,37.0,27.24,NNW,337,2.1,2.8,48,0.00,,,0.00,Rainwise IP-100,2013-05-14 13:10:00,
2013-05-14 06:15:00,56.7,37.0,27.24,NNW,337,2.6,2.8,47,0.00,,,0.00,Rainwise IP-100,2013-05-14 13:15:00,
2013-05-14 06:20:00,57.1,37.0,27.24,NNW,337,1.6,2.6,46,0.00,,,0.00,Rainwise IP-100,2013-05-14 13:20:00,
2013-05-14 06:25:00,57.0,37.0,27.24,NNW,337,0.0,1.9,47,0.00,,,0.00,Rainwise IP-100,2013-05-14 13:25:00,
2013-05-14 06:31:00,56.4,38.0,27.24,NNW,337,0.0,1.9,49,0.00,,,0.00,Rainwise IP-100,2013-05-14 13:31:00,
2013-05-14 06:36:00,56.0,39.0,27.24,NNW,337,0.0,0.0,53,0.00,,,0.00,Rainwise IP-100,2013-05-14 13:36:00,
2013-05-14 06:41:00,55.8,40.0,27.24,NNW,337,0.0,0.0,55,0.00,,,0.00,Rainwise IP-100,2013-05-14 13:41:00,
2013-05-14 06:46:00,55.5,41.0,27.24,NNW,337,0.0,1.4,57,0.00,,,0.00,Rainwise IP-100,2013-05-14 13:46:00,
2013-05-14 06:51:00,55.6,40.0,27.24,NNW,337,2.1,2.6,56,0.00,,,0.00,Rainwise IP-100,2013-05-14 13:51:00,
2013-05-14 06:56:00,56.6,39.0,27.24,NNW,337,1.9,2.8,53,0.00,,,0.00,Rainwise IP-100,2013-05-14 13:56:00,
2013-05-14 07:01:00,57.8,40.0,27.24,NNW,337,1.6,2.6,51,0.00,,,0.00,Rainwise IP-100,2013-05-14 14:01:00,
2013-05-14 07:06:00,58.7,41.0,27.24,NNW,337,0.0,2.3,51,0.00,,,0.00,Rainwise IP-100,2013-05-14 14:06:00,
2013-05-14 07:11:00,59.3,41.0,27.24,NNW,337,1.9,2.3,51,0.00,,,0.00,Rainwise IP-100,2013-05-14 14:11:00,
2013-05-14 07:16:00,59.8,42.0,27.24,NNW,337,1.2,2.1,52,0.00,,,0.00,Rainwise IP-100,2013-05-14 14:16:00,
2013-05-14 07:21:00,60.2,43.0,27.24,NNW,337,1.9,1.9,53,0.00,,,0.00,Rainwise IP-100,2013-05-14 14:21:00,
2013-05-14 07:26:00,60.8,43.0,27.24,NNW,337,1.4,2.1,52,0.00,,,0.00,Rainwise IP-100,2013-05-14 14:26:00,
2013-05-14 07:32:00,61.5,43.0,27.24,NNW,337,1.9,1.9,51,0.00,,,0.00,Rainwise IP-100,2013-05-14 14:32:00,
2013-05-14 07:37:00,62.2,45.0,27.24,NNW,337,0.0,1.9,53,0.00,,,0.00,Rainwise IP-100,2013-05-14 14:37:00,
2013-05-14 07:42:00,63.2,46.0,27.24,NNW,337,0.0,1.2,54,0.00,,,0.00,Rainwise IP-100,2013-05-14 14:42:00,
2013-05-14 07:47:00,64.5,49.0,27.24,NNW,337,0.0,0.0,57,0.00,,,0.00,Rainwise IP-100,2013-05-14 14:47:00,
2013-05-14 07:52:00,66.2,51.0,27.24,NNW,337,0.0,0.0,58,0.00,,,0.00,Rainwise IP-100,2013-05-14 14:52:00,
2013-05-14 07:57:00,67.3,52.0,27.24,NNW,337,1.2,1.9,58,0.00,,,0.00,Rainwise IP-100,2013-05-14 14:57:00,
2013-05-14 08:02:00,68.7,50.0,27.23,NNW,337,1.2,2.1,51,0.00,,,0.00,Rainwise IP-100,2013-05-14 15:02:00,
2013-05-14 08:07:00,70.1,50.0,27.23,NNW,337,0.0,1.4,48,0.00,,,0.00,Rainwise IP-100,2013-05-14 15:07:00,
2013-05-14 08:12:00,71.3,52.0,27.23,NNW,337,0.0,0.0,51,0.00,,,0.00,Rainwise IP-100,2013-05-14 15:12:00,
2013-05-14 08:17:00,72.3,53.5,27.23,NNW,337,0.0,0.0,51,0.00,,,0.00,Rainwise IP-100,2013-05-14 15:17:00,
2013-05-14 08:23:00,73.1,53.5,27.23,NNW,337,0.0,0.0,50,0.00,,,0.00,Rainwise IP-100,2013-05-14 15:23:00,
2013-05-14 08:28:00,74.1,54.0,27.23,NNW,337,0.0,0.0,49,0.00,,,0.00,Rainwise IP-100,2013-05-14 15:28:00,
2013-05-14 08:33:00,74.4,53.0,27.23,NNW,337,0.0,0.0,47,0.00,,,0.00,Rainwise IP-100,2013-05-14 15:33:00,
2013-05-14 08:38:00,74.3,53.0,27.22,North,360,0.0,0.0,46,0.00,,,0.00,Rainwise IP-100,2013-05-14 15:38:00,
2013-05-14 08:43:00,75.2,51.0,27.22,North,360,0.0,1.9,43,0.00,,,0.00,Rainwise IP-100,2013-05-14 15:43:00,
2013-05-14 08:48:00,76.7,50.0,27.22,North,360,1.2,1.4,39,0.00,,,0.00,Rainwise IP-100,2013-05-14 15:48:00,
2013-05-14 08:53:00,78.0,50.0,27.22,NNW,337,0.0,1.6,37,0.00,,,0.00,Rainwise IP-100,2013-05-14 15:53:00,
2013-05-14 08:58:00,78.4,51.0,27.23,NNW,337,0.0,0.0,39,0.00,,,0.00,Rainwise IP-100,2013-05-14 15:58:00,
2013-05-14 09:03:00,78.4,53.0,27.23,NNW,337,0.0,0.0,41,0.00,,,0.00,Rainwise IP-100,2013-05-14 16:03:00,
2013-05-14 09:08:00,77.7,51.0,27.23,SE,135,0.0,3.0,40,0.00,,,0.00,Rainwise IP-100,2013-05-14 16:08:00,
2013-05-14 09:13:00,77.0,51.0,27.23,SE,135,1.4,3.3,40,0.00,,,0.00,Rainwise IP-100,2013-05-14 16:13:00,
2013-05-14 09:18:00,76.2,51.0,27.23,ESE,112,1.2,2.8,42,0.00,,,0.00,Rainwise IP-100,2013-05-14 16:18:00,
2013-05-14 09:24:00,75.1,50.5,27.23,ENE,67,1.9,5.6,42,0.00,,,0.00,Rainwise IP-100,2013-05-14 16:24:00,
2013-05-14 09:29:00,75.3,50.0,27.23,ENE,67,2.1,4.2,41,0.00,,,0.00,Rainwise IP-100,2013-05-14 16:29:00,
2013-05-14 09:34:00,75.7,50.5,27.23,ESE,112,1.9,3.5,42,0.00,,,0.00,Rainwise IP-100,2013-05-14 16:34:00,
2013-05-14 09:39:00,75.9,50.5,27.23,ESE,112,3.7,4.2,41,0.00,,,0.00,Rainwise IP-100,2013-05-14 16:39:00,
2013-05-14 09:44:00,76.2,49.0,27.23,ESE,112,2.6,4.0,39,0.00,,,0.00,Rainwise IP-100,2013-05-14 16:44:00,
2013-05-14 09:49:00,77.0,50.5,27.23,SSW,202,1.6,4.0,39,0.00,,,0.00,Rainwise IP-100,2013-05-14 16:49:00,
2013-05-14 09:54:00,78.1,50.5,27.23,SSW,202,1.4,2.3,38,0.00,,,0.00,Rainwise IP-100,2013-05-14 16:54:00,
2013-05-14 09:59:00,78.4,50.5,27.23,East,90,0.0,4.2,38,0.00,,,0.00,Rainwise IP-100,2013-05-14 16:59:00,
2013-05-14 10:04:00,78.0,50.5,27.23,SSE,157,1.4,4.2,38,0.00,,,0.00,Rainwise IP-100,2013-05-14 17:04:00,
2013-05-14 10:09:00,77.8,50.5,27.23,ESE,112,2.1,5.4,39,0.00,,,0.00,Rainwise IP-100,2013-05-14 17:09:00,
2013-05-14 10:14:00,78.0,50.0,27.24,East,90,2.8,5.4,37,0.00,,,0.00,Rainwise IP-100,2013-05-14 17:14:00,
2013-05-14 10:19:00,78.1,47.5,27.24,East,90,4.0,4.4,34,0.00,,,0.00,Rainwise IP-100,2013-05-14 17:19:00,
2013-05-14 10:25:00,77.9,46.0,27.24,ESE,112,3.0,6.3,32,0.00,,,0.00,Rainwise IP-100,2013-05-14 17:25:00,
2013-05-14 10:30:00,78.1,45.0,27.24,NNE,22,3.3,4.9,31,0.00,,,0.00,Rainwise IP-100,2013-05-14 17:30:00,
2013-05-14 10:35:00,78.6,45.0,27.24,East,90,1.6,3.7,30,0.00,,,0.00,Rainwise IP-100,2013-05-14 17:35:00,
2013-05-14 10:40:00,78.4,44.0,27.24,East,90,3.3,4.9,30,0.00,,,0.00,Rainwise IP-100,2013-05-14 17:40:00,
2013-05-14 10:45:00,78.3,45.0,27.24,SSW,202,3.3,4.4,31,0.00,,,0.00,Rainwise IP-100,2013-05-14 17:45:00,
2013-05-14 10:50:00,79.1,46.0,27.24,ESE,112,3.3,4.7,31,0.00,,,0.00,Rainwise IP-100,2013-05-14 17:50:00,
2013-05-14 10:55:00,79.8,45.0,27.24,ENE,67,4.7,4.9,29,0.00,,,0.00,Rainwise IP-100,2013-05-14 17:55:00,
2013-05-14 11:00:00,79.9,45.0,27.24,ESE,112,1.9,5.4,29,0.00,,,0.00,Rainwise IP-100,2013-05-14 18:00:00,
2013-05-14 11:05:00,79.5,44.0,27.24,SE,135,1.6,5.4,28,0.00,,,0.00,Rainwise IP-100,2013-05-14 18:05:00,
2013-05-14 11:10:00,79.6,44.0,27.24,ESE,112,3.3,5.4,28,0.00,,,0.00,Rainwise IP-100,2013-05-14 18:10:00,
2013-05-14 11:15:00,79.8,43.0,27.24,East,90,2.6,7.5,27,0.00,,,0.00,Rainwise IP-100,2013-05-14 18:15:00,
2013-05-14 11:20:00,79.4,41.0,27.24,ESE,112,3.0,6.3,26,0.00,,,0.00,Rainwise IP-100,2013-05-14 18:20:00,
2013-05-14 11:26:00,79.8,43.0,27.24,SSE,157,2.3,4.4,27,0.00,,,0.00,Rainwise IP-100,2013-05-14 18:26:00,
2013-05-14 11:31:00,80.4,42.0,27.24,SSE,157,0.0,5.6,26,0.00,,,0.00,Rainwise IP-100,2013-05-14 18:31:00,
2013-05-14 11:36:00,80.9,43.0,27.24,NNE,22,3.0,3.3,26,0.00,,,0.00,Rainwise IP-100,2013-05-14 18:36:00,
2013-05-14 11:41:00,80.7,45.0,27.24,East,90,2.3,7.0,28,0.00,,,0.00,Rainwise IP-100,2013-05-14 18:41:00,
2013-05-14 11:46:00,80.0,46.0,27.24,ENE,67,2.6,6.1,30,0.00,,,0.00,Rainwise IP-100,2013-05-14 18:46:00,
2013-05-14 11:51:00,79.6,47.5,27.24,ENE,67,1.6,5.8,32,0.00,,,0.00,Rainwise IP-100,2013-05-14 18:51:00,
2013-05-14 11:56:00,79.8,48.0,27.24,NE,45,2.1,6.3,33,0.00,,,0.00,Rainwise IP-100,2013-05-14 18:56:00,
2013-05-14 12:01:00,79.8,48.0,27.24,East,90,3.0,5.4,33,0.00,,,0.00,Rainwise IP-100,2013-05-14 19:01:00,
2013-05-14 12:06:00,79.6,47.5,27.25,WNW,292,3.0,7.0,32,0.00,,,0.00,Rainwise IP-100,2013-05-14 19:06:00,
2013-05-14 12:11:00,79.3,48.0,27.25,ENE,67,1.4,8.6,34,0.00,,,0.00,Rainwise IP-100,2013-05-14 19:11:00,
2013-05-14 12:16:00,78.1,49.0,27.24,ENE,67,2.8,10.0,36,0.00,,,0.00,Rainwise IP-100,2013-05-14 19:16:00,
2013-05-14 12:21:00,77.5,50.0,27.24,East,90,2.6,8.6,37,0.00,,,0.00,Rainwise IP-100,2013-05-14 19:21:00,
2013-05-14 12:27:00,77.1,50.0,27.25,East,90,3.7,8.9,38,0.00,,,0.00,Rainwise IP-100,2013-05-14 19:27:00,
2013-05-14 12:32:00,77.1,51.0,27.25,ENE,67,1.6,8.2,40,0.00,,,0.00,Rainwise IP-100,2013-05-14 19:32:00,
2013-05-14 12:37:00,77.4,51.0,27.24,SE,135,3.0,4.9,40,0.00,,,0.00,Rainwise IP-100,2013-05-14 19:37:00,
2013-05-14 12:42:00,77.7,51.0,27.24,East,90,2.3,5.8,40,0.00,,,0.00,Rainwise IP-100,2013-05-14 19:42:00,
2013-05-14 12:47:00,77.8,51.0,27.25,ESE,112,3.0,6.8,40,0.00,,,0.00,Rainwise IP-100,2013-05-14 19:47:00,
2013-05-14 12:52:00,77.9,52.0,27.25,WSW,247,1.9,9.1,40,0.00,,,0.00,Rainwise IP-100,2013-05-14 19:52:00,
2013-05-14 12:57:00,78.3,53.0,27.24,East,90,3.0,7.9,41,0.00,,,0.00,Rainwise IP-100,2013-05-14 19:57:00,
2013-05-14 13:02:00,78.6,53.0,27.24,East,90,5.8,6.3,40,0.00,,,0.00,Rainwise IP-100,2013-05-14 20:02:00,
2013-05-14 13:07:00,78.4,53.0,27.24,ESE,112,6.1,10.7,41,0.00,,,0.00,Rainwise IP-100,2013-05-14 20:07:00,
2013-05-14 13:12:00,78.3,53.0,27.24,ESE,112,4.7,9.1,41,0.00,,,0.00,Rainwise IP-100,2013-05-14 20:12:00,
2013-05-14 13:17:00,78.1,52.0,27.24,ESE,112,2.8,9.3,40,0.00,,,0.00,Rainwise IP-100,2013-05-14 20:17:00,
2013-05-14 13:22:00,78.1,51.0,27.24,NE,45,5.8,6.5,39,0.00,,,0.00,Rainwise IP-100,2013-05-14 20:22:00,
2013-05-14 13:28:00,78.3,52.0,27.24,ESE,112,2.8,7.5,40,0.00,,,0.00,Rainwise IP-100,2013-05-14 20:28:00,
2013-05-14 13:33:00,78.5,53.0,27.24,ENE,67,5.1,8.9,40,0.00,,,0.00,Rainwise IP-100,2013-05-14 20:33:00,
2013-05-14 13:38:00,79.0,53.5,27.24,NNW,337,1.2,6.1,41,0.00,,,0.00,Rainwise IP-100,2013-05-14 20:38:00,
2013-05-14 13:43:00,79.5,54.0,27.25,ESE,112,3.3,7.2,41,0.00,,,0.00,Rainwise IP-100,2013-05-14 20:43:00,
2013-05-14 13:48:00,79.2,53.0,27.25,ESE,112,6.5,6.5,40,0.00,,,0.00,Rainwise IP-100,2013-05-14 20:48:00,
2013-05-14 13:53:00,78.8,53.5,27.24,ESE,112,4.0,9.1,41,0.00,,,0.00,Rainwise IP-100,2013-05-14 20:53:00,
2013-05-14 13:58:00,78.3,53.0,27.25,East,90,0.0,8.2,41,0.00,,,0.00,Rainwise IP-100,2013-05-14 20:58:00,
2013-05-14 14:03:00,77.8,52.0,27.24,East,90,3.3,7.0,41,0.00,,,0.00,Rainwise IP-100,2013-05-14 21:03:00,
2013-05-14 14:09:00,77.3,53.0,27.24,ESE,112,9.8,9.8,42,0.00,,,0.00,Rainwise IP-100,2013-05-14 21:09:00,
2013-05-14 14:14:00,77.5,53.0,27.24,ESE,112,2.8,11.0,42,0.00,,,0.00,Rainwise IP-100,2013-05-14 21:14:00,
2013-05-14 14:19:00,78.1,54.0,27.25,SSE,157,1.2,6.3,43,0.00,,,0.00,Rainwise IP-100,2013-05-14 21:19:00,
2013-05-14 14:24:00,78.2,53.5,27.24,East,90,2.6,4.9,42,0.00,,,0.00,Rainwise IP-100,2013-05-14 21:24:00,
2013-05-14 14:30:00,78.0,53.0,27.24,ESE,112,3.3,5.1,41,0.00,,,0.00,Rainwise IP-100,2013-05-14 21:30:00,
2013-05-14 14:35:00,78.2,53.0,27.24,SE,135,5.8,7.9,41,0.00,,,0.00,Rainwise IP-100,2013-05-14 21:35:00,
2013-05-14 14:40:00,78.2,52.0,27.24,ESE,112,2.1,8.6,40,0.00,,,0.00,Rainwise IP-100,2013-05-14 21:40:00,
2013-05-14 14:45:00,78.0,51.0,27.24,ENE,67,6.1,8.2,39,0.00,,,0.00,Rainwise IP-100,2013-05-14 21:45:00,
2013-05-14 14:50:00,78.3,50.5,27.24,ESE,112,3.5,6.1,38,0.00,,,0.00,Rainwise IP-100,2013-05-14 21:50:00,
2013-05-14 14:55:00,78.4,50.5,27.23,ESE,112,5.6,10.3,38,0.00,,,0.00,Rainwise IP-100,2013-05-14 21:55:00,
2013-05-14 15:00:00,78.2,50.0,27.24,SSE,157,1.6,9.3,37,0.00,,,0.00,Rainwise IP-100,2013-05-14 22:00:00,
2013-05-14 15:05:00,78.5,49.0,27.24,ESE,112,2.1,6.1,35,0.00,,,0.00,Rainwise IP-100,2013-05-14 22:05:00,
2013-05-14 15:10:00,79.1,49.0,27.24,ESE,112,3.7,4.2,35,0.00,,,0.00,Rainwise IP-100,2013-05-14 22:10:00,
2013-05-14 15:15:00,79.3,49.0,27.24,SE,135,2.8,4.7,35,0.00,,,0.00,Rainwise IP-100,2013-05-14 22:15:00,
2013-05-14 15:20:00,79.7,49.0,27.24,East,90,1.2,4.0,34,0.00,,,0.00,Rainwise IP-100,2013-05-14 22:20:00,
2013-05-14 15:25:00,80.1,49.0,27.24,WSW,247,1.6,7.2,34,0.00,,,0.00,Rainwise IP-100,2013-05-14 22:25:00,
2013-05-14 15:31:00,80.3,48.0,27.24,NNE,22,0.0,4.9,33,0.00,,,0.00,Rainwise IP-100,2013-05-14 22:31:00,
2013-05-14 15:36:00,80.1,47.0,27.24,NE,45,3.3,6.3,31,0.00,,,0.00,Rainwise IP-100,2013-05-14 22:36:00,
2013-05-14 15:41:00,80.2,47.0,27.24,NNE,22,1.6,4.9,31,0.00,,,0.00,Rainwise IP-100,2013-05-14 22:41:00,
2013-05-14 15:46:00,81.0,47.5,27.24,North,360,2.3,4.4,31,0.00,,,0.00,Rainwise IP-100,2013-05-14 22:46:00,
2013-05-14 15:51:00,81.5,47.5,27.24,ESE,112,0.0,9.8,30,0.00,,,0.00,Rainwise IP-100,2013-05-14 22:51:00,
2013-05-14 15:56:00,80.8,47.0,27.24,ENE,67,0.0,8.6,30,0.00,,,0.00,Rainwise IP-100,2013-05-14 22:56:00,
2013-05-14 16:01:00,80.4,47.0,27.24,NNE,22,3.3,7.0,30,0.00,,,0.00,Rainwise IP-100,2013-05-14 23:01:00,
2013-05-14 16:06:00,80.4,47.0,27.24,ENE,67,2.1,5.4,30,0.00,,,0.00,Rainwise IP-100,2013-05-14 23:06:00,
2013-05-14 16:11:00,80.6,47.5,27.24,ESE,112,2.8,3.7,31,0.00,,,0.00,Rainwise IP-100,2013-05-14 23:11:00,
2013-05-14 16:16:00,80.5,47.0,27.24,SSE,157,3.0,6.1,30,0.00,,,0.00,Rainwise IP-100,2013-05-14 23:16:00,
2013-05-14 16:21:00,80.2,47.0,27.24,East,90,4.4,4.9,31,0.00,,,0.00,Rainwise IP-100,2013-05-14 23:21:00,
2013-05-14 16:26:00,79.8,47.0,27.24,ESE,112,4.2,7.5,31,0.00,,,0.00,Rainwise IP-100,2013-05-14 23:26:00,
2013-05-14 16:32:00,79.4,46.0,27.24,ESE,112,3.0,7.5,31,0.00,,,0.00,Rainwise IP-100,2013-05-14 23:32:00,
2013-05-14 16:37:00,79.1,47.0,27.24,ENE,67,4.0,7.9,32,0.00,,,0.00,Rainwise IP-100,2013-05-14 23:37:00,
2013-05-14 16:42:00,78.8,47.0,27.24,ESE,112,4.2,6.5,32,0.00,,,0.00,Rainwise IP-100,2013-05-14 23:42:00,
2013-05-14 16:47:00,78.9,47.0,27.24,ENE,67,3.3,7.2,32,0.00,,,0.00,Rainwise IP-100,2013-05-14 23:47:00,
2013-05-14 16:52:00,78.6,47.5,27.24,ENE,67,4.7,9.1,33,0.00,,,0.00,Rainwise IP-100,2013-05-14 23:52:00,
2013-05-14 16:57:00,78.3,47.5,27.24,SE,135,1.9,7.7,34,0.00,,,0.00,Rainwise IP-100,2013-05-14 23:57:00,
2013-05-14 17:02:00,78.2,48.0,27.25,ESE,112,9.3,11.4,35,0.00,,,0.00,Rainwise IP-100,2013-05-15 00:02:00,
2013-05-14 17:07:00,77.9,48.0,27.24,East,90,6.5,10.7,35,0.00,,,0.00,Rainwise IP-100,2013-05-15 00:07:00,
2013-05-14 17:12:00,77.7,48.0,27.24,East,90,3.5,10.3,35,0.00,,,0.00,Rainwise IP-100,2013-05-15 00:12:00,
2013-05-14 17:17:00,77.6,49.0,27.24,ESE,112,1.9,9.3,36,0.00,,,0.00,Rainwise IP-100,2013-05-15 00:17:00,
2013-05-14 17:22:00,77.2,48.0,27.24,East,90,3.0,7.9,36,0.00,,,0.00,Rainwise IP-100,2013-05-15 00:22:00,
2013-05-14 17:27:00,77.0,49.0,27.24,ESE,112,1.4,6.3,37,0.00,,,0.00,Rainwise IP-100,2013-05-15 00:27:00,
2013-05-14 17:33:00,76.9,50.0,27.25,East,90,3.5,6.3,38,0.00,,,0.00,Rainwise IP-100,2013-05-15 00:33:00,
2013-05-14 17:38:00,76.9,50.0,27.25,ENE,67,2.3,5.6,38,0.00,,,0.00,Rainwise IP-100,2013-05-15 00:38:00,
2013-05-14 17:43:00,76.7,49.0,27.25,ESE,112,2.1,6.3,38,0.00,,,0.00,Rainwise IP-100,2013-05-15 00:43:00,
2013-05-14 17:48:00,76.4,49.0,27.25,ENE,67,2.8,6.1,38,0.00,,,0.00,Rainwise IP-100,2013-05-15 00:48:00,
2013-05-14 17:53:00,76.1,48.0,27.25,East,90,2.6,5.8,38,0.00,,,0.00,Rainwise IP-100,2013-05-15 00:53:00,
2013-05-14 17:58:00,75.9,48.0,27.24,East,90,0.0,6.1,38,0.00,,,0.00,Rainwise IP-100,2013-05-15 00:58:00,
2013-05-14 18:03:00,75.8,48.0,27.24,SE,135,0.0,4.7,38,0.00,,,0.00,Rainwise IP-100,2013-05-15 01:03:00,
2013-05-14 18:08:00,75.4,49.0,27.24,ESE,112,0.0,2.3,39,0.00,,,0.00,Rainwise IP-100,2013-05-15 01:08:00,
2013-05-14 18:13:00,75.0,49.0,27.25,ENE,67,0.0,4.0,40,0.00,,,0.00,Rainwise IP-100,2013-05-15 01:13:00,
2013-05-14 18:18:00,74.7,49.0,27.24,ENE,67,1.4,3.0,40,0.00,,,0.00,Rainwise IP-100,2013-05-15 01:18:00,
2013-05-14 18:23:00,74.6,49.0,27.24,NNE,22,0.0,2.3,40,0.00,,,0.00,Rainwise IP-100,2013-05-15 01:23:00,
2013-05-14 18:28:00,74.5,50.0,27.25,ENE,67,2.1,2.3,41,0.00,,,0.00,Rainwise IP-100,2013-05-15 01:28:00,
2013-05-14 18:34:00,74.1,50.0,27.24,ENE,67,0.0,3.3,42,0.00,,,0.00,Rainwise IP-100,2013-05-15 01:34:00,
2013-05-14 18:39:00,73.7,50.0,27.24,ENE,67,0.0,0.0,43,0.00,,,0.00,Rainwise IP-100,2013-05-15 01:39:00,
2013-05-14 18:44:00,73.3,50.5,27.24,ENE,67,0.0,0.0,44,0.00,,,0.00,Rainwise IP-100,2013-05-15 01:44:00,
2013-05-14 18:49:00,72.8,50.0,27.24,ENE,67,0.0,0.0,45,0.00,,,0.00,Rainwise IP-100,2013-05-15 01:49:00,
2013-05-14 18:54:00,72.4,50.5,27.24,ENE,67,0.0,0.0,46,0.00,,,0.00,Rainwise IP-100,2013-05-15 01:54:00,
2013-05-14 18:59:00,72.1,50.5,27.25,ENE,67,0.0,0.0,47,0.00,,,0.00,Rainwise IP-100,2013-05-15 01:59:00,
2013-05-14 19:04:00,71.8,50.5,27.25,ENE,67,0.0,0.0,48,0.00,,,0.00,Rainwise IP-100,2013-05-15 02:04:00,
2013-05-14 19:09:00,71.6,50.5,27.24,ENE,67,0.0,0.0,48,0.00,,,0.00,Rainwise IP-100,2013-05-15 02:09:00,
2013-05-14 19:14:00,71.2,52.0,27.25,ENE,67,0.0,0.0,50,0.00,,,0.00,Rainwise IP-100,2013-05-15 02:14:00,
2013-05-14 19:19:00,70.8,52.0,27.24,ENE,67,0.0,0.0,51,0.00,,,0.00,Rainwise IP-100,2013-05-15 02:19:00,
2013-05-14 19:24:00,70.3,52.0,27.25,ENE,67,0.0,0.0,52,0.00,,,0.00,Rainwise IP-100,2013-05-15 02:24:00,
2013-05-14 19:29:00,69.9,51.0,27.24,ENE,67,0.0,0.0,52,0.00,,,0.00,Rainwise IP-100,2013-05-15 02:29:00,
2013-05-14 19:35:00,69.6,51.0,27.24,ENE,67,0.0,0.0,52,0.00,,,0.00,Rainwise IP-100,2013-05-15 02:35:00,
2013-05-14 19:40:00,69.3,50.5,27.24,ENE,67,0.0,0.0,52,0.00,,,0.00,Rainwise IP-100,2013-05-15 02:40:00,
2013-05-14 19:45:00,69.0,50.5,27.25,ENE,67,0.0,0.0,52,0.00,,,0.00,Rainwise IP-100,2013-05-15 02:45:00,
2013-05-14 19:50:00,68.6,50.5,27.24,ENE,67,0.0,0.0,53,0.00,,,0.00,Rainwise IP-100,2013-05-15 02:50:00,
2013-05-14 19:55:00,68.2,50.5,27.25,ENE,67,0.0,0.0,54,0.00,,,0.00,Rainwise IP-100,2013-05-15 02:55:00,
2013-05-14 20:00:00,67.7,50.5,27.25,ENE,67,0.0,0.0,55,0.00,,,0.00,Rainwise IP-100,2013-05-15 03:00:00,
2013-05-14 20:05:00,67.3,51.0,27.25,ENE,67,0.0,0.0,56,0.00,,,0.00,Rainwise IP-100,2013-05-15 03:05:00,
2013-05-14 20:10:00,66.7,51.0,27.25,ENE,67,0.0,0.0,57,0.00,,,0.00,Rainwise IP-100,2013-05-15 03:10:00,
2013-05-14 20:15:00,66.4,50.5,27.25,ENE,67,0.0,0.0,57,0.00,,,0.00,Rainwise IP-100,2013-05-15 03:15:00,
2013-05-14 20:20:00,66.2,50.5,27.25,ENE,67,0.0,0.0,57,0.00,,,0.00,Rainwise IP-100,2013-05-15 03:20:00,
2013-05-14 20:25:00,66.1,51.0,27.25,ENE,67,0.0,0.0,59,0.00,,,0.00,Rainwise IP-100,2013-05-15 03:25:00,
2013-05-14 20:30:00,66.0,51.0,27.26,ENE,67,0.0,0.0,60,0.00,,,0.00,Rainwise IP-100,2013-05-15 03:30:00,
2013-05-14 20:36:00,65.9,51.0,27.26,ENE,67,0.0,0.0,60,0.00,,,0.00,Rainwise IP-100,2013-05-15 03:36:00,
2013-05-14 20:41:00,65.8,51.0,27.26,ENE,67,0.0,0.0,60,0.00,,,0.00,Rainwise IP-100,2013-05-15 03:41:00,
2013-05-14 20:46:00,65.5,51.0,27.26,ENE,67,0.0,0.0,61,0.00,,,0.00,Rainwise IP-100,2013-05-15 03:46:00,
2013-05-14 20:51:00,65.2,51.0,27.26,ENE,67,0.0,0.0,61,0.00,,,0.00,Rainwise IP-100,2013-05-15 03:51:00,
2013-05-14 20:56:00,64.8,51.0,27.26,ENE,67,0.0,0.0,62,0.00,,,0.00,Rainwise IP-100,2013-05-15 03:56:00,
2013-05-14 21:01:00,64.6,51.0,27.26,ENE,67,0.0,0.0,63,0.00,,,0.00,Rainwise IP-100,2013-05-15 04:01:00,
2013-05-14 21:02:00,64.5,51.0,27.26,ENE,67,0.0,0.0,63,0.00,,,0.00,Rainwise IP-100,2013-05-15 04:02:00,
2013-05-14 21:04:00,64.4,51.0,27.26,ENE,67,0.0,0.0,63,0.00,,,0.00,Rainwise IP-100,2013-05-15 04:04:00,
2013-05-14 21:05:00,64.4,51.0,27.26,ENE,67,0.0,0.0,63,0.00,,,0.00,Rainwise IP-100,2013-05-15 04:05:00,
2013-05-14 21:06:00,64.3,51.0,27.26,ENE,67,0.0,0.0,63,0.00,,,0.00,Rainwise IP-100,2013-05-15 04:06:00,
2013-05-14 21:11:00,64.0,51.0,27.26,ENE,67,0.0,0.0,64,0.00,,,0.00,Rainwise IP-100,2013-05-15 04:11:00,
2013-05-14 21:16:00,64.0,51.0,27.27,ENE,67,0.0,0.0,64,0.00,,,0.00,Rainwise IP-100,2013-05-15 04:16:00,
2013-05-14 21:21:00,64.0,51.0,27.27,ENE,67,0.0,0.0,64,0.00,,,0.00,Rainwise IP-100,2013-05-15 04:21:00,
2013-05-14 21:26:00,63.7,51.0,27.27,ENE,67,0.0,0.0,65,0.00,,,0.00,Rainwise IP-100,2013-05-15 04:26:00,
2013-05-14 21:31:00,63.5,51.0,27.27,ENE,67,0.0,0.0,65,0.00,,,0.00,Rainwise IP-100,2013-05-15 04:31:00,
2013-05-14 21:37:00,63.5,51.0,27.27,ENE,67,0.0,0.0,65,0.00,,,0.00,Rainwise IP-100,2013-05-15 04:37:00,
2013-05-14 21:42:00,63.2,51.0,27.27,ENE,67,0.0,0.0,66,0.00,,,0.00,Rainwise IP-100,2013-05-15 04:42:00,
2013-05-14 21:47:00,62.9,52.0,27.27,ENE,67,0.0,0.0,67,0.00,,,0.00,Rainwise IP-100,2013-05-15 04:47:00,
2013-05-14 21:52:00,62.6,51.0,27.27,ENE,67,0.0,0.0,67,0.00,,,0.00,Rainwise IP-100,2013-05-15 04:52:00,
2013-05-14 21:57:00,62.4,52.0,27.27,ENE,67,0.0,0.0,68,0.00,,,0.00,Rainwise IP-100,2013-05-15 04:57:00,
2013-05-14 22:02:00,62.2,52.0,27.27,ENE,67,0.0,0.0,69,0.00,,,0.00,Rainwise IP-100,2013-05-15 05:02:00,
2013-05-14 22:07:00,62.0,52.0,27.27,ENE,67,0.0,0.0,69,0.00,,,0.00,Rainwise IP-100,2013-05-15 05:07:00,
2013-05-14 22:12:00,61.8,52.0,27.28,ENE,67,0.0,0.0,70,0.00,,,0.00,Rainwise IP-100,2013-05-15 05:12:00,
2013-05-14 22:17:00,61.5,52.0,27.28,ENE,67,0.0,0.0,70,0.00,,,0.00,Rainwise IP-100,2013-05-15 05:17:00,
2013-05-14 22:22:00,61.3,52.0,27.28,ENE,67,0.0,0.0,71,0.00,,,0.00,Rainwise IP-100,2013-05-15 05:22:00,
2013-05-14 22:27:00,61.2,51.0,27.28,ENE,67,0.0,0.0,71,0.00,,,0.00,Rainwise IP-100,2013-05-15 05:27:00,
2013-05-14 22:32:00,61.2,51.0,27.28,ENE,67,0.0,0.0,71,0.00,,,0.00,Rainwise IP-100,2013-05-15 05:32:00,
2013-05-14 22:38:00,61.3,52.0,27.28,ENE,67,0.0,0.0,71,0.00,,,0.00,Rainwise IP-100,2013-05-15 05:38:00,
2013-05-14 22:43:00,61.4,52.0,27.28,ENE,67,0.0,0.0,71,0.00,,,0.00,Rainwise IP-100,2013-05-15 05:43:00,
2013-05-14 22:48:00,61.5,52.0,27.28,NNW,337,0.0,1.9,71,0.00,,,0.00,Rainwise IP-100,2013-05-15 05:48:00,
2013-05-14 22:53:00,61.6,52.0,27.28,NNW,337,2.3,3.0,70,0.00,,,0.00,Rainwise IP-100,2013-05-15 05:53:00,
2013-05-14 22:58:00,61.6,52.0,27.27,NNW,337,2.1,2.8,70,0.00,,,0.00,Rainwise IP-100,2013-05-15 05:58:00,
2013-05-14 23:03:00,61.4,52.0,27.28,NNW,337,2.3,3.0,71,0.00,,,0.00,Rainwise IP-100,2013-05-15 06:03:00,
2013-05-14 23:08:00,61.5,52.0,27.28,NNW,337,2.1,2.8,71,0.00,,,0.00,Rainwise IP-100,2013-05-15 06:08:00,
2013-05-14 23:13:00,61.4,52.0,27.27,NNW,337,1.2,2.6,71,0.00,,,0.00,Rainwise IP-100,2013-05-15 06:13:00,
2013-05-14 23:18:00,60.9,51.0,27.28,NNW,337,1.6,2.1,71,0.00,,,0.00,Rainwise IP-100,2013-05-15 06:18:00,
2013-05-14 23:23:00,60.4,51.0,27.28,NNW,337,2.3,2.3,72,0.00,,,0.00,Rainwise IP-100,2013-05-15 06:23:00,
2013-05-14 23:28:00,60.2,51.0,27.27,NNW,337,2.1,2.8,73,0.00,,,0.00,Rainwise IP-100,2013-05-15 06:28:00,
2013-05-14 23:33:00,60.0,51.0,27.28,NNW,337,1.6,2.3,74,0.00,,,0.00,Rainwise IP-100,2013-05-15 06:33:00,
2013-05-14 23:39:00,59.9,51.0,27.28,NNW,337,1.9,2.1,74,0.00,,,0.00,Rainwise IP-100,2013-05-15 06:39:00,
2013-05-14 23:44:00,59.6,51.0,27.28,NNW,337,1.9,2.6,74,0.00,,,0.00,Rainwise IP-100,2013-05-15 06:44:00,
2013-05-14 23:49:00,59.4,51.0,27.28,NNW,337,1.4,1.9,75,0.00,,,0.00,Rainwise IP-100,2013-05-15 06:49:00,
2013-05-14 23:54:00,59.3,52.0,27.28,NNW,337,0.0,2.3,76,0.00,,,0.00,Rainwise IP-100,2013-05-15 06:54:00,
2013-05-14 23:59:00,59.2,51.0,27.28,NNW,337,1.6,1.6,76,0.00,,,0.00,Rainwise IP-100,2013-05-15 06:59:00,